Location: Quaker Farms
(41.4276°N, 73.1557°W)
Time: 20:50:40
(UTC+00:00)

Vanguard 1 - Visible Passes

Search period start: 13 June 2021 00:00
Search period end: 23 June 2021 00:00
Orbit: 650 x 3832 km, 34.2° (Epoch: 12 June)

Date Brightness Start Highest point End Pass type
(mag) Time Alt. Az. Time Alt. Az. Time Alt. Az.
13 Jun 12.7 02:10:02 10° SSW 02:29:02 38° SSE 02:41:56 10° E visible
13 Jun 11.8 04:34:09 10° WSW 04:52:40 58° S 05:02:57 10° E visible
13 Jun 11.1 07:01:02 10° W 07:14:48 57° SSW 07:22:11 10° ESE visible
14 Jun 12.5 02:30:07 10° SW 02:50:10 45° SSE 03:03:13 10° E visible
14 Jun 11.7 04:55:24 10° WSW 05:13:46 61° S 05:23:48 10° E visible
14 Jun 11.1 07:22:32 10° W 07:35:38 52° SSW 07:42:47 10° ESE visible
15 Jun 13.2 00:29:51 10° S 00:47:09 28° SE 01:01:03 10° E visible
15 Jun 12.4 02:50:36 10° SW 03:11:19 51° SSE 03:24:21 10° E visible
15 Jun 11.6 05:16:48 10° WSW 05:34:52 63° S 05:44:36 10° ESE visible
15 Jun 11.2 07:44:05 10° W 07:56:21 45° SSW 08:03:15 10° SE visible
16 Jun 13.1 00:48:56 10° SSW 01:08:08 34° SE 01:23:01 10° E visible
16 Jun 12.3 03:11:24 10° SW 03:32:29 57° SSE 03:45:21 10° E visible
16 Jun 11.6 05:38:19 10° W 05:55:55 63° S 06:05:21 10° ESE visible
16 Jun 11.4 08:05:41 10° W 08:16:57 38° SSW 08:23:32 10° SE visible
17 Jun 12.9 01:08:35 10° SSW 01:29:11 41° SSE 01:44:35 10° E visible
17 Jun 12.2 03:32:27 10° WSW 03:53:41 62° S 04:06:18 10° E visible
17 Jun 11.5 05:59:52 10° W 06:16:55 61° SSW 06:26:03 10° ESE visible
17 Jun 11.5 08:27:25 10° W 08:37:23 30° SW 08:43:35 10° SSE visible
18 Jun 12.8 01:28:43 10° SW 01:50:17 48° SSE 02:05:54 10° E visible
18 Jun 12.1 03:53:44 10° WSW 04:14:53 65° S 04:27:12 10° E visible
18 Jun 11.5 06:21:28 10° W 06:37:49 56° SSW 06:46:40 10° ESE visible
19 Jun 12.7 01:49:12 10° SW 02:11:26 54° SSE 02:27:05 10° E visible
19 Jun 12.0 04:15:09 10° WSW 04:36:05 67° S 04:48:04 10° ESE visible
19 Jun 11.6 06:43:06 10° W 06:58:36 50° SSW 07:07:08 10° SE visible
20 Jun 12.6 02:09:59 10° SW 02:32:39 60° SSE 02:48:10 10° E visible
20 Jun 12.0 04:36:41 10° W 04:57:15 66° S 05:08:53 10° ESE visible
20 Jun 11.7 07:04:47 10° W 07:19:14 43° SSW 07:27:27 10° SE visible
21 Jun 12.5 02:31:01 10° WSW 02:53:55 65° SSE 03:09:11 10° E visible
21 Jun 11.9 04:58:17 10° W 05:18:20 64° SSW 05:29:37 10° ESE visible
21 Jun 11.8 07:26:35 10° W 07:39:43 35° SW 07:47:33 10° SSE visible
22 Jun 13.0 00:28:00 10° SW 00:49:45 50° SSE 01:07:55 10° E visible
22 Jun 12.4 02:52:16 10° WSW 03:15:13 68° S 03:30:09 10° E visible
22 Jun 11.9 05:19:54 10° W 05:39:20 60° SSW 05:50:15 10° ESE visible
22 Jun 12.0 07:48:36 10° W 08:00:01 27° SW 08:07:19 10° S visible
